QFA679 YMML-YPAD

Flight info

Callsign QFA679
Flight time 1h 4m
Altitude 32000
Route ML H345 AD
Aircraft B738/M-SDE2E3FGHIRWXY/LB1

Departure

Time 2026-05-08 00:39
Airport Melbourne Airport (YMML)

Arrival

Time 2026-05-08 01:43
Airport Adelaide International Airport (YPAD)
Time Latitude Longitude Altitude Speed Heading
2026-05-08 00:05 -37.66778 144.85156 396 ft 0 kts 80°
2026-05-08 00:26 -37.66782 144.85130 397 ft 4 kts 81°
2026-05-08 00:26 -37.66788 144.85098 395 ft 4 kts 54°
2026-05-08 00:26 -37.66798 144.85087 391 ft 3 kts
2026-05-08 00:27 -37.66771 144.85087 390 ft 4 kts 359°
2026-05-08 00:27 -37.66744 144.85086 398 ft 4 kts 356°
2026-05-08 00:27 -37.66717 144.85083 398 ft 4 kts 354°
2026-05-08 00:27 -37.66691 144.85079 398 ft 4 kts 352°
2026-05-08 00:28 -37.66685 144.85078 398 ft 1 kts 352°
2026-05-08 00:31 -37.66667 144.85074 398 ft 3 kts 351°
2026-05-08 00:31 -37.66646 144.85071 400 ft 3 kts 352°
2026-05-08 00:31 -37.66632 144.85068 401 ft 2 kts 351°
2026-05-08 00:31 -37.66619 144.85066 401 ft 2 kts 351°
2026-05-08 00:32 -37.66607 144.85063 402 ft 2 kts 351°
2026-05-08 00:32 -37.66572 144.85059 403 ft 9 kts 354°
2026-05-08 00:32 -37.66499 144.85045 406 ft 11 kts 345°
2026-05-08 00:32 -37.66439 144.85003 405 ft 7 kts 319°
2026-05-08 00:33 -37.66411 144.84973 407 ft 3 kts 321°
2026-05-08 00:33 -37.66407 144.84970 407 ft 0 kts 321°
2026-05-08 00:34 -37.66403 144.84965 408 ft 2 kts 321°
2026-05-08 00:35 -37.66382 144.84944 407 ft 5 kts 322°
2026-05-08 00:35 -37.66368 144.84930 408 ft 0 kts 323°
2026-05-08 00:35 -37.66357 144.84919 410 ft 2 kts 320°
2026-05-08 00:36 -37.66354 144.84916 410 ft 1 kts 319°
2026-05-08 00:36 -37.66343 144.84905 407 ft 4 kts 322°
2026-05-08 00:36 -37.66333 144.84895 411 ft 0 kts 322°
2026-05-08 00:37 -37.66331 144.84893 411 ft 1 kts 321°
2026-05-08 00:37 -37.66327 144.84889 411 ft 1 kts 321°
2026-05-08 00:37 -37.66302 144.84864 410 ft 8 kts 321°
2026-05-08 00:38 -37.66228 144.84774 412 ft 3 kts 299°
2026-05-08 00:38 -37.66225 144.84754 412 ft 2 kts 275°
2026-05-08 00:38 -37.66224 144.84751 412 ft 0 kts 275°
2026-05-08 00:38 -37.66223 144.84730 412 ft 14 kts 275°
2026-05-08 00:39 -37.66196 144.84282 409 ft 88 kts 274°
2026-05-08 00:39 -37.66138 144.83245 423 ft 146 kts 272°
2026-05-08 00:39 -37.66027 144.81941 1083 ft 149 kts 272°
2026-05-08 00:39 -37.65940 144.80586 1813 ft 158 kts 268°
2026-05-08 00:40 -37.65870 144.79277 2697 ft 153 kts 266°
2026-05-08 00:40 -37.65799 144.77810 2972 ft 182 kts 266°
2026-05-08 00:40 -37.65712 144.76113 3190 ft 206 kts 267°
2026-05-08 00:40 -37.65608 144.74219 3496 ft 226 kts 268°
2026-05-08 00:41 -37.65490 144.72135 3916 ft 243 kts 268°
2026-05-08 00:41 -37.65364 144.70005 4771 ft 244 kts 268°
2026-05-08 00:41 -37.65238 144.67854 5566 ft 247 kts 268°
2026-05-08 00:41 -37.65089 144.65673 6302 ft 254 kts 273°
2026-05-08 00:42 -37.64539 144.63490 6988 ft 266 kts 284°
2026-05-08 00:42 -37.63828 144.61307 7657 ft 272 kts 285°
2026-05-08 00:42 -37.63093 144.59082 8345 ft 277 kts 285°
2026-05-08 00:42 -37.62347 144.56820 9025 ft 282 kts 284°
2026-05-08 00:43 -37.61591 144.54516 9717 ft 287 kts 284°
2026-05-08 00:43 -37.60824 144.52166 10326 ft 295 kts 284°
2026-05-08 00:43 -37.60022 144.49678 10488 ft 318 kts 284°
2026-05-08 00:43 -37.59178 144.47053 10708 ft 336 kts 285°
2026-05-08 00:44 -37.58282 144.44286 11222 ft 344 kts 285°
2026-05-08 00:44 -37.57371 144.41487 11894 ft 347 kts 286°
2026-05-08 00:44 -37.56451 144.38668 12615 ft 349 kts 286°
2026-05-08 00:44 -37.55527 144.35830 13314 ft 352 kts 286°
2026-05-08 00:45 -37.54596 144.32970 14013 ft 355 kts 286°
2026-05-08 00:45 -37.53655 144.30072 14648 ft 359 kts 286°
2026-05-08 00:45 -37.52706 144.27152 15323 ft 361 kts 286°
2026-05-08 00:45 -37.51749 144.24211 15995 ft 364 kts 286°
2026-05-08 00:46 -37.50786 144.21250 16660 ft 367 kts 287°
2026-05-08 00:46 -37.49812 144.18261 17301 ft 371 kts 287°
2026-05-08 00:46 -37.48828 144.15240 17944 ft 375 kts 287°
2026-05-08 00:46 -37.47835 144.12195 18583 ft 378 kts 287°
2026-05-08 00:47 -37.46831 144.09121 19133 ft 381 kts 287°
2026-05-08 00:47 -37.45817 144.06023 19688 ft 384 kts 287°
2026-05-08 00:47 -37.44796 144.02904 20247 ft 386 kts 287°
2026-05-08 00:47 -37.43782 143.99810 20784 ft 389 kts 287°
2026-05-08 00:48 -37.42746 143.96652 21323 ft 392 kts 287°
2026-05-08 00:48 -37.41701 143.93469 21860 ft 395 kts 287°
2026-05-08 00:48 -37.40649 143.90270 22381 ft 398 kts 287°
2026-05-08 00:48 -37.39585 143.87037 22898 ft 401 kts 287°
2026-05-08 00:49 -37.38514 143.83786 23397 ft 404 kts 287°
2026-05-08 00:49 -37.37435 143.80513 23888 ft 407 kts 287°
2026-05-08 00:49 -37.36345 143.77211 24293 ft 410 kts 287°
2026-05-08 00:49 -37.35249 143.73898 24705 ft 412 kts 287°
2026-05-08 00:50 -37.34148 143.70572 25129 ft 414 kts 287°
2026-05-08 00:50 -37.33039 143.67225 25546 ft 416 kts 287°
2026-05-08 00:50 -37.31923 143.63861 25944 ft 418 kts 287°
2026-05-08 00:50 -37.30801 143.60484 26326 ft 420 kts 287°
2026-05-08 00:51 -37.29670 143.57082 26686 ft 423 kts 287°
2026-05-08 00:51 -37.28531 143.53659 27064 ft 426 kts 287°
2026-05-08 00:51 -37.27386 143.50224 27448 ft 428 kts 287°
2026-05-08 00:51 -37.26235 143.46776 27841 ft 428 kts 287°
2026-05-08 00:52 -37.25086 143.43337 28367 ft 426 kts 287°
2026-05-08 00:52 -37.23940 143.39915 28929 ft 423 kts 287°
2026-05-08 00:52 -37.22802 143.36516 29469 ft 422 kts 287°
2026-05-08 00:52 -37.21681 143.33167 29945 ft 421 kts 287°
2026-05-08 00:53 -37.20547 143.29786 30387 ft 420 kts 287°
2026-05-08 00:53 -37.19417 143.26415 30808 ft 419 kts 287°
2026-05-08 00:53 -37.18341 143.23028 31189 ft 417 kts 285°
2026-05-08 00:53 -37.17306 143.19632 31528 ft 417 kts 285°
2026-05-08 00:54 -37.16283 143.16229 31877 ft 417 kts 285°
2026-05-08 00:54 -37.15592 143.13926 32129 ft 416 kts 285°
2026-05-08 00:54 -37.14584 143.10575 32329 ft 419 kts 285°
2026-05-08 00:55 -37.12507 143.03729 32316 ft 419 kts 285°
2026-05-08 00:55 -37.10433 142.96964 32336 ft 416 kts 285°
2026-05-08 00:56 -37.08346 142.90171 32337 ft 419 kts 285°
2026-05-08 00:56 -37.06238 142.83328 32335 ft 422 kts 285°
2026-05-08 00:57 -37.04114 142.76456 32320 ft 424 kts 286°
2026-05-08 00:57 -37.01981 142.69576 32337 ft 424 kts 286°
2026-05-08 00:58 -36.99850 142.62717 32339 ft 423 kts 286°
2026-05-08 00:58 -36.97721 142.55881 32337 ft 421 kts 286°
2026-05-08 00:59 -36.95599 142.49081 32337 ft 419 kts 286°
2026-05-08 00:59 -36.93480 142.42308 32340 ft 417 kts 287°
2026-05-08 01:00 -36.91361 142.35544 32358 ft 420 kts 287°
2026-05-08 01:00 -36.89221 142.28729 32361 ft 423 kts 287°
2026-05-08 01:01 -36.87060 142.21870 32360 ft 425 kts 287°
2026-05-08 01:01 -36.84888 142.14992 32360 ft 426 kts 287°
2026-05-08 01:02 -36.82723 142.08157 32360 ft 426 kts 287°
2026-05-08 01:02 -36.80532 142.01254 32351 ft 424 kts 287°
2026-05-08 01:03 -36.78376 141.94476 32365 ft 422 kts 287°
2026-05-08 01:03 -36.76211 141.87685 32371 ft 421 kts 287°
2026-05-08 01:04 -36.74048 141.80914 32363 ft 420 kts 287°
2026-05-08 01:04 -36.71886 141.74161 32372 ft 420 kts 288°
2026-05-08 01:05 -36.69715 141.67400 32382 ft 420 kts 288°
2026-05-08 01:05 -36.67537 141.60628 32385 ft 422 kts 288°
2026-05-08 01:06 -36.65348 141.53841 32389 ft 423 kts 288°
2026-05-08 01:06 -36.63147 141.47034 32389 ft 424 kts 288°
2026-05-08 01:07 -36.60935 141.40207 32388 ft 425 kts 288°
2026-05-08 01:07 -36.58720 141.33387 32376 ft 426 kts 288°
2026-05-08 01:08 -36.56496 141.26557 32384 ft 425 kts 288°
2026-05-08 01:08 -36.54280 141.19765 32393 ft 423 kts 288°
2026-05-08 01:09 -36.52066 141.12995 32399 ft 422 kts 288°
2026-05-08 01:09 -36.49852 141.06240 32396 ft 422 kts 288°
2026-05-08 01:10 -36.47650 140.99536 32400 ft 422 kts 288°
2026-05-08 01:10 -36.45430 140.92791 32403 ft 422 kts 289°
2026-05-08 01:11 -36.43202 140.86041 32401 ft 423 kts 289°
2026-05-08 01:11 -36.40968 140.79284 32407 ft 423 kts 289°
2026-05-08 01:12 -36.38419 140.72684 32398 ft 429 kts 301°
2026-05-08 01:12 -36.34743 140.66818 32405 ft 431 kts 306°
2026-05-08 01:13 -36.30985 140.61021 32402 ft 431 kts 305°
2026-05-08 01:13 -36.27251 140.55191 32409 ft 432 kts 305°
2026-05-08 01:14 -36.23586 140.49432 32392 ft 414 kts 305°
2026-05-08 01:14 -36.21820 140.46657 32128 ft 407 kts 305°
2026-05-08 01:14 -36.20084 140.43928 31886 ft 400 kts 305°
2026-05-08 01:14 -36.18367 140.41228 31516 ft 398 kts 305°
2026-05-08 01:15 -36.16659 140.38545 31181 ft 395 kts 305°
2026-05-08 01:15 -36.14963 140.35884 30840 ft 392 kts 305°
2026-05-08 01:15 -36.13279 140.33245 30497 ft 390 kts 305°
2026-05-08 01:15 -36.11605 140.30623 30100 ft 387 kts 305°
2026-05-08 01:16 -36.09943 140.28023 29721 ft 384 kts 305°
2026-05-08 01:16 -36.08316 140.25482 29370 ft 380 kts 305°
2026-05-08 01:16 -36.06684 140.22936 29070 ft 375 kts 305°
2026-05-08 01:16 -36.05070 140.20422 28711 ft 372 kts 305°
2026-05-08 01:17 -36.03468 140.17928 28372 ft 368 kts 305°
2026-05-08 01:17 -36.01880 140.15456 28014 ft 366 kts 305°
2026-05-08 01:17 -36.00306 140.13006 27676 ft 363 kts 305°
2026-05-08 01:17 -35.98740 140.10571 27332 ft 361 kts 305°
2026-05-08 01:18 -35.97186 140.08154 26992 ft 358 kts 305°
2026-05-08 01:18 -35.95638 140.05751 26652 ft 356 kts 305°
2026-05-08 01:18 -35.94103 140.03366 26327 ft 354 kts 305°
2026-05-08 01:18 -35.92572 140.00992 25993 ft 352 kts 305°
2026-05-08 01:19 -35.91050 139.98632 25657 ft 350 kts 305°
2026-05-08 01:19 -35.89536 139.96287 25319 ft 349 kts 305°
2026-05-08 01:19 -35.88027 139.93950 24990 ft 348 kts 305°
2026-05-08 01:19 -35.86524 139.91624 24666 ft 346 kts 305°
2026-05-08 01:20 -35.85025 139.89307 24336 ft 345 kts 305°
2026-05-08 01:20 -35.83526 139.86990 23996 ft 345 kts 305°
2026-05-08 01:20 -35.82034 139.84687 23621 ft 344 kts 305°
2026-05-08 01:20 -35.80546 139.82391 23260 ft 342 kts 305°
2026-05-08 01:21 -35.79062 139.80104 22916 ft 340 kts 305°
2026-05-08 01:21 -35.77590 139.77836 22583 ft 338 kts 305°
2026-05-08 01:21 -35.76145 139.75612 22261 ft 336 kts 305°
2026-05-08 01:21 -35.74670 139.73342 21925 ft 334 kts 305°
2026-05-08 01:22 -35.73221 139.71113 21606 ft 332 kts 305°
2026-05-08 01:22 -35.71780 139.68899 21294 ft 331 kts 305°
2026-05-08 01:22 -35.70343 139.66691 20979 ft 330 kts 305°
2026-05-08 01:22 -35.68929 139.64521 20668 ft 328 kts 305°
2026-05-08 01:23 -35.67502 139.62332 20349 ft 327 kts 305°
2026-05-08 01:23 -35.66078 139.60149 20040 ft 327 kts 305°
2026-05-08 01:23 -35.64659 139.57974 19725 ft 326 kts 305°
2026-05-08 01:23 -35.63240 139.55801 19405 ft 326 kts 305°
2026-05-08 01:24 -35.61822 139.53631 19080 ft 326 kts 305°
2026-05-08 01:24 -35.60403 139.51461 18749 ft 326 kts 305°
2026-05-08 01:24 -35.58986 139.49296 18400 ft 325 kts 305°
2026-05-08 01:24 -35.57572 139.47137 18061 ft 324 kts 305°
2026-05-08 01:25 -35.56162 139.44985 17746 ft 323 kts 305°
2026-05-08 01:25 -35.54758 139.42843 17435 ft 321 kts 305°
2026-05-08 01:25 -35.53360 139.40712 17114 ft 319 kts 305°
2026-05-08 01:25 -35.51971 139.38596 16804 ft 318 kts 305°
2026-05-08 01:26 -35.50586 139.36486 16496 ft 317 kts 305°
2026-05-08 01:26 -35.49207 139.34388 16182 ft 315 kts 305°
2026-05-08 01:26 -35.47833 139.32296 15881 ft 314 kts 305°
2026-05-08 01:26 -35.46462 139.30211 15572 ft 313 kts 305°
2026-05-08 01:27 -35.45096 139.28137 15272 ft 312 kts 305°
2026-05-08 01:27 -35.43733 139.26069 14967 ft 311 kts 305°
2026-05-08 01:27 -35.42349 139.24070 14652 ft 313 kts 314°
2026-05-08 01:27 -35.40480 139.22686 14504 ft 316 kts 336°
2026-05-08 01:28 -35.38446 139.21722 14400 ft 311 kts 338°
2026-05-08 01:28 -35.36361 139.20779 13725 ft 323 kts 338°
2026-05-08 01:28 -35.34245 139.19828 13299 ft 325 kts 338°
2026-05-08 01:28 -35.32127 139.18869 12968 ft 324 kts 338°
2026-05-08 01:29 -35.30021 139.17906 12642 ft 323 kts 337°
2026-05-08 01:29 -35.27922 139.16940 12320 ft 322 kts 337°
2026-05-08 01:29 -35.25831 139.15975 12003 ft 320 kts 337°
2026-05-08 01:29 -35.23752 139.15013 11685 ft 319 kts 337°
2026-05-08 01:30 -35.21680 139.14053 11392 ft 318 kts 337°
2026-05-08 01:30 -35.19608 139.13095 11010 ft 319 kts 337°
2026-05-08 01:30 -35.17535 139.12137 10711 ft 318 kts 337°
2026-05-08 01:30 -35.15488 139.11192 10564 ft 310 kts 337°
2026-05-08 01:31 -35.13486 139.10267 10347 ft 306 kts 337°
2026-05-08 01:31 -35.11496 139.09349 10032 ft 305 kts 337°
2026-05-08 01:31 -35.09516 139.08435 9712 ft 304 kts 337°
2026-05-08 01:31 -35.07544 139.07517 9316 ft 305 kts 334°
2026-05-08 01:32 -35.05808 139.06106 9057 ft 295 kts 313°
2026-05-08 01:32 -35.04364 139.04448 8996 ft 282 kts 313°
2026-05-08 01:32 -35.02974 139.02852 8963 ft 267 kts 313°
2026-05-08 01:32 -35.01649 139.01340 8957 ft 255 kts 313°
2026-05-08 01:33 -35.00363 138.99881 8935 ft 251 kts 313°
2026-05-08 01:33 -34.99061 138.98410 8545 ft 262 kts 313°
2026-05-08 01:33 -34.97700 138.96879 8071 ft 270 kts 313°
2026-05-08 01:33 -34.96312 138.95323 7593 ft 271 kts 313°
2026-05-08 01:34 -34.94933 138.93781 7149 ft 267 kts 313°
2026-05-08 01:34 -34.93571 138.92261 6649 ft 264 kts 313°
2026-05-08 01:34 -34.92237 138.90771 6318 ft 253 kts 313°
2026-05-08 01:34 -34.90985 138.89375 6179 ft 235 kts 312°
2026-05-08 01:35 -34.89817 138.88074 5986 ft 222 kts 312°
2026-05-08 01:35 -34.88665 138.86783 5603 ft 223 kts 312°
2026-05-08 01:35 -34.87534 138.85522 5380 ft 216 kts 313°
2026-05-08 01:35 -34.86453 138.84316 5250 ft 210 kts 313°
2026-05-08 01:36 -34.85370 138.83104 5071 ft 213 kts 313°
2026-05-08 01:36 -34.84278 138.81885 4816 ft 211 kts 313°
2026-05-08 01:36 -34.83209 138.80694 4606 ft 206 kts 312°
2026-05-08 01:36 -34.82166 138.79533 4478 ft 201 kts 312°
2026-05-08 01:37 -34.81130 138.78378 4399 ft 204 kts 312°
2026-05-08 01:37 -34.80316 138.77024 4283 ft 194 kts 280°
2026-05-08 01:37 -34.80210 138.75433 4145 ft 189 kts 257°
2026-05-08 01:37 -34.80640 138.74021 4108 ft 171 kts 230°
2026-05-08 01:38 -34.81350 138.72874 3920 ft 169 kts 229°
2026-05-08 01:38 -34.82071 138.71758 3714 ft 167 kts 228°
2026-05-08 01:38 -34.82791 138.70686 3508 ft 164 kts 227°
2026-05-08 01:38 -34.83516 138.69623 3291 ft 163 kts 227°
2026-05-08 01:39 -34.84243 138.68567 3084 ft 162 kts 228°
2026-05-08 01:39 -34.84961 138.67522 2845 ft 160 kts 227°
2026-05-08 01:39 -34.85687 138.66468 2643 ft 164 kts 228°
2026-05-08 01:39 -34.86424 138.65398 2405 ft 164 kts 227°
2026-05-08 01:40 -34.87149 138.64344 2168 ft 160 kts 228°
2026-05-08 01:40 -34.87832 138.63352 1974 ft 147 kts 227°
2026-05-08 01:40 -34.88470 138.62426 1759 ft 140 kts 228°
2026-05-08 01:40 -34.89086 138.61532 1599 ft 135 kts 228°
2026-05-08 01:41 -34.89698 138.60646 1395 ft 138 kts 228°
2026-05-08 01:41 -34.90314 138.59751 1214 ft 137 kts 229°
2026-05-08 01:41 -34.90935 138.58849 1029 ft 140 kts 229°
2026-05-08 01:41 -34.91564 138.57938 840 ft 140 kts 228°
2026-05-08 01:42 -34.92177 138.57048 666 ft 134 kts 228°
2026-05-08 01:42 -34.92569 138.56481 505 ft 131 kts 227°
2026-05-08 01:42 -34.93156 138.55647 304 ft 127 kts 230°
2026-05-08 01:42 -34.93694 138.54846 155 ft 121 kts 228°
2026-05-08 01:43 -34.94245 138.54058 35 ft 119 kts 229°
2026-05-08 01:43 -34.94700 138.53397 23 ft 80 kts 231°
2026-05-08 01:43 -34.94968 138.53008 22 ft 47 kts 230°
2026-05-08 01:43 -34.95149 138.52746 19 ft 28 kts 230°
2026-05-08 01:44 -34.95236 138.52604 20 ft 15 kts 256°
2026-05-08 01:44 -34.95184 138.52509 19 ft 14 kts 325°
2026-05-08 01:44 -34.95101 138.52452 19 ft 13 kts 344°
2026-05-08 01:44 -34.95013 138.52471 19 ft 13 kts 31°
2026-05-08 01:45 -34.94942 138.52535 19 ft 13 kts 37°
2026-05-08 01:45 -34.94874 138.52599 20 ft 12 kts 37°
2026-05-08 01:45 -34.94804 138.52663 20 ft 13 kts 38°
2026-05-08 01:45 -34.94735 138.52731 22 ft 15 kts 38°
2026-05-08 01:46 -34.94637 138.52822 20 ft 20 kts 37°
2026-05-08 01:46 -34.94531 138.52921 24 ft 18 kts 38°
2026-05-08 01:46 -34.94446 138.53025 23 ft 17 kts 66°
2026-05-08 01:46 -34.94473 138.53148 22 ft 15 kts 122°
2026-05-08 01:47 -34.94516 138.53262 22 ft 14 kts 97°
2026-05-08 01:47 -34.94485 138.53371 23 ft 14 kts 54°
2026-05-08 01:47 -34.94426 138.53459 21 ft 13 kts 51°
2026-05-08 01:48 -34.94309 138.53626 22 ft 13 kts 47°
2026-05-08 01:48 -34.94235 138.53649 24 ft 12 kts 333°
2026-05-08 01:48 -34.94164 138.53670 25 ft 11 kts 49°
2026-05-08 01:48 -34.94115 138.53742 26 ft 11 kts 50°
2026-05-08 01:49 -34.94066 138.53812 26 ft 11 kts 51°
2026-05-08 01:49 -34.94021 138.53816 27 ft 7 kts 323°
2026-05-08 01:49 -34.93989 138.53785 30 ft 3 kts 320°
2026-05-08 01:49 -34.93980 138.53776 27 ft 0 kts 320°